(°C)
11°
11°
11°
11°
12°
13°
14°
(°C)
11°
11°
11°
11°
12°
13°
14°
I
I
I
I
JI
J
JJZ
(km/h)
2-6
2-6
2-7
3-7
2-8
3-6
3-6
(mm)
0
0
0
0
0
0
0
(%)
1
1
0
0
7
14
19

Podizanje Sunca

/ -26.7°
sun-icon
UV 3
07:48
18:55
Rastući mesec (155°)
18:15
05:21

METAR za Ioánnina (LGIO)

Vreme Uslovi Temperatura/
Tačka rose
Vetar Vidljivost Prognoza Oblaci Pritisak Promena Neobrađeno
12°C / 12°C variable 0kt - 1021 - LGIO 180150Z AUTO 00000KT //// // ////// 12/12 Q1021 RE//
12°C / 12°C variable 0kt - 1021 - LGIO 180120Z AUTO 00000KT //// // ////// 12/12 Q1021 RE//
12°C / 12°C variable 1kt - 1021 - LGIO 180050Z AUTO VRB01KT //// // ////// 12/12 Q1021 RE//
12°C / 12°C variable 2kt - 1021 - LGIO 180020Z AUTO VRB02KT //// // ////// 12/12 Q1021 RE//
12°C / 12°C variable 2kt - 1021 - LGIO 172350Z AUTO VRB02KT //// // ////// 12/12 Q1021 RE//
12°C / 12°C variable 1kt - 1021 - LGIO 172320Z AUTO VRB01KT //// // ////// 12/12 Q1021 RE//
13°C / 12°C variable 1kt - 1021 - LGIO 172250Z AUTO VRB01KT //// // ////// 13/12 Q1021 RE//
13°C / 12°C variable 0kt - 1021 - LGIO 172220Z AUTO 00000KT //// // ////// 13/12 Q1021 RE//
12°C / 12°C variable 0kt - 1021 - LGIO 172150Z AUTO 00000KT //// // ////// 12/12 Q1021 RE//
VFR 13°C / 12°C variable 0kt >10km - Few Clouds 1000ft
Broken Clouds 7000ft
1021 - LGIO 172120Z 00000KT 9999 FEW010 BKN070 13/12 Q1021
VFR 13°C / 12°C variable 0kt >10km - Scattered Clouds 3500ft
Broken Clouds 7000ft
1020 - LGIO 172050Z 00000KT 9999 SCT035 BKN070 13/12 Q1020
VFR 13°C / 12°C variable 0kt >10km - Scattered Clouds 3500ft
Broken Clouds 7000ft
1020 - LGIO 172020Z 00000KT 9999 SCT035 BKN070 13/12 Q1020
VFR 13°C / 12°C variable 0kt >10km - Scattered Clouds 3500ft
Broken Clouds 7000ft
1020 - LGIO 171950Z 00000KT 9999 SCT035 BKN070 13/12 Q1020
VFR 13°C / 12°C variable 0kt >10km - Scattered Clouds 3500ft
Broken Clouds 7000ft
1020 - LGIO 171920Z 00000KT 9999 SCT035 BKN070 13/12 Q1020
VFR 13°C / 12°C variable 0kt >10km - Scattered Clouds 3500ft
Broken Clouds 7000ft
1020 - LGIO 171850Z 00000KT 9999 SCT035 BKN070 13/12 Q1020
VFR 14°C / 12°C variable 0kt >10km - Scattered Clouds 3500ft
Broken Clouds 7000ft
1020 - LGIO 171820Z 00000KT 9999 SCT035 BKN070 14/12 Q1020
VFR 14°C / 12°C variable 0kt >10km - Scattered Clouds 3500ft
Broken Clouds 7000ft
1020 - LGIO 171750Z 00000KT 9999 SCT035 BKN070 14/12 Q1020
VFR 14°C / 12°C variable 0kt >10km - Few Clouds 1000ft
Broken Clouds 3500ft
Broken Clouds 7000ft
1019 - LGIO 171720Z 00000KT 9999 FEW010 BKN035 BKN070 14/12 Q1019
VFR 14°C / 12°C variable 2kt >10km - Few Clouds 1000ft
Broken Clouds 3500ft
Broken Clouds 7000ft
1019 - LGIO 171650Z VRB02KT 9999 FEW010 BKN035 BKN070 14/12 Q1019
VFR 14°C / 11°C variable 3kt >10km - Few Clouds 1000ft
Broken Clouds 3500ft
Broken Clouds 7000ft
1019 - LGIO 171620Z VRB03KT 9999 FEW010 BKN035 BKN070 14/11 Q1019
VFR 14°C / 12°C variable 2kt >10km - Few Clouds 400ft
Broken Clouds 3500ft
Broken Clouds 7000ft
1019 - LGIO 171550Z VRB02KT 9999 FEW004 BKN035 BKN070 14/12 Q1019
VFR 14°C / 12°C variable 3kt >10km - Few Clouds 1500ft
Broken Clouds 3500ft
Broken Clouds 7000ft
1019 - LGIO 171520Z VRB03KT 9999 FEW015 BKN035 BKN070 14/12 Q1019
VFR 15°C / 12°C 140º 7kt >10km - Few Clouds 1500ft
Broken Clouds 3500ft
Broken Clouds 7000ft
1019 - LGIO 171450Z 14007KT 9999 FEW015 BKN035 BKN070 15/12 Q1019
VFR 16°C / 11°C variable 3kt >10km - Few Clouds 1500ft
Broken Clouds 3500ft
Broken Clouds 7000ft
1018 - LGIO 171350Z VRB03KT 9999 FEW015 BKN035 BKN070 16/11 Q1018

12°C / 12°C

[Više]
Vetar variable 0kt
Vidljivost
Prognoza -
Oblaci
Pritisak 1021
Promena -
Neobrađeno LGIO 180150Z AUTO 00000KT //// // ////// 12/12 Q1021 RE//

12°C / 12°C

[Više]
Vetar variable 0kt
Vidljivost
Prognoza -
Oblaci
Pritisak 1021
Promena -
Neobrađeno LGIO 180120Z AUTO 00000KT //// // ////// 12/12 Q1021 RE//

12°C / 12°C

[Više]
Vetar variable 1kt
Vidljivost
Prognoza -
Oblaci
Pritisak 1021
Promena -
Neobrađeno LGIO 180050Z AUTO VRB01KT //// // ////// 12/12 Q1021 RE//

12°C / 12°C

[Više]
Vetar variable 2kt
Vidljivost
Prognoza -
Oblaci
Pritisak 1021
Promena -
Neobrađeno LGIO 180020Z AUTO VRB02KT //// // ////// 12/12 Q1021 RE//

12°C / 12°C

[Više]
Vetar variable 2kt
Vidljivost
Prognoza -
Oblaci
Pritisak 1021
Promena -
Neobrađeno LGIO 172350Z AUTO VRB02KT //// // ////// 12/12 Q1021 RE//

12°C / 12°C

[Više]
Vetar variable 1kt
Vidljivost
Prognoza -
Oblaci
Pritisak 1021
Promena -
Neobrađeno LGIO 172320Z AUTO VRB01KT //// // ////// 12/12 Q1021 RE//

13°C / 12°C

[Više]
Vetar variable 1kt
Vidljivost
Prognoza -
Oblaci
Pritisak 1021
Promena -
Neobrađeno LGIO 172250Z AUTO VRB01KT //// // ////// 13/12 Q1021 RE//

13°C / 12°C

[Više]
Vetar variable 0kt
Vidljivost
Prognoza -
Oblaci
Pritisak 1021
Promena -
Neobrađeno LGIO 172220Z AUTO 00000KT //// // ////// 13/12 Q1021 RE//

12°C / 12°C

[Više]
Vetar variable 0kt
Vidljivost
Prognoza -
Oblaci
Pritisak 1021
Promena -
Neobrađeno LGIO 172150Z AUTO 00000KT //// // ////// 12/12 Q1021 RE//

VFR

13°C / 12°C

[Više]
Vetar variable 0kt
Vidljivost >10km
Prognoza -
Oblaci Few Clouds 1000ft
Broken Clouds 7000ft
Pritisak 1021
Promena -
Neobrađeno LGIO 172120Z 00000KT 9999 FEW010 BKN070 13/12 Q1021

VFR

13°C / 12°C

[Više]
Vetar variable 0kt
Vidljivost >10km
Prognoza -
Oblaci Scattered Clouds 3500ft
Broken Clouds 7000ft
Pritisak 1020
Promena -
Neobrađeno LGIO 172050Z 00000KT 9999 SCT035 BKN070 13/12 Q1020

VFR

13°C / 12°C

[Više]
Vetar variable 0kt
Vidljivost >10km
Prognoza -
Oblaci Scattered Clouds 3500ft
Broken Clouds 7000ft
Pritisak 1020
Promena -
Neobrađeno LGIO 172020Z 00000KT 9999 SCT035 BKN070 13/12 Q1020

VFR

13°C / 12°C

[Više]
Vetar variable 0kt
Vidljivost >10km
Prognoza -
Oblaci Scattered Clouds 3500ft
Broken Clouds 7000ft
Pritisak 1020
Promena -
Neobrađeno LGIO 171950Z 00000KT 9999 SCT035 BKN070 13/12 Q1020

VFR

13°C / 12°C

[Više]
Vetar variable 0kt
Vidljivost >10km
Prognoza -
Oblaci Scattered Clouds 3500ft
Broken Clouds 7000ft
Pritisak 1020
Promena -
Neobrađeno LGIO 171920Z 00000KT 9999 SCT035 BKN070 13/12 Q1020

VFR

13°C / 12°C

[Više]
Vetar variable 0kt
Vidljivost >10km
Prognoza -
Oblaci Scattered Clouds 3500ft
Broken Clouds 7000ft
Pritisak 1020
Promena -
Neobrađeno LGIO 171850Z 00000KT 9999 SCT035 BKN070 13/12 Q1020

VFR

14°C / 12°C

[Više]
Vetar variable 0kt
Vidljivost >10km
Prognoza -
Oblaci Scattered Clouds 3500ft
Broken Clouds 7000ft
Pritisak 1020
Promena -
Neobrađeno LGIO 171820Z 00000KT 9999 SCT035 BKN070 14/12 Q1020

VFR

14°C / 12°C

[Više]
Vetar variable 0kt
Vidljivost >10km
Prognoza -
Oblaci Scattered Clouds 3500ft
Broken Clouds 7000ft
Pritisak 1020
Promena -
Neobrađeno LGIO 171750Z 00000KT 9999 SCT035 BKN070 14/12 Q1020

VFR

14°C / 12°C

[Više]
Vetar variable 0kt
Vidljivost >10km
Prognoza -
Oblaci Few Clouds 1000ft
Broken Clouds 3500ft
Broken Clouds 7000ft
Pritisak 1019
Promena -
Neobrađeno LGIO 171720Z 00000KT 9999 FEW010 BKN035 BKN070 14/12 Q1019

VFR

14°C / 12°C

[Više]
Vetar variable 2kt
Vidljivost >10km
Prognoza -
Oblaci Few Clouds 1000ft
Broken Clouds 3500ft
Broken Clouds 7000ft
Pritisak 1019
Promena -
Neobrađeno LGIO 171650Z VRB02KT 9999 FEW010 BKN035 BKN070 14/12 Q1019

VFR

14°C / 11°C

[Više]
Vetar variable 3kt
Vidljivost >10km
Prognoza -
Oblaci Few Clouds 1000ft
Broken Clouds 3500ft
Broken Clouds 7000ft
Pritisak 1019
Promena -
Neobrađeno LGIO 171620Z VRB03KT 9999 FEW010 BKN035 BKN070 14/11 Q1019

VFR

14°C / 12°C

[Više]
Vetar variable 2kt
Vidljivost >10km
Prognoza -
Oblaci Few Clouds 400ft
Broken Clouds 3500ft
Broken Clouds 7000ft
Pritisak 1019
Promena -
Neobrađeno LGIO 171550Z VRB02KT 9999 FEW004 BKN035 BKN070 14/12 Q1019

VFR

14°C / 12°C

[Više]
Vetar variable 3kt
Vidljivost >10km
Prognoza -
Oblaci Few Clouds 1500ft
Broken Clouds 3500ft
Broken Clouds 7000ft
Pritisak 1019
Promena -
Neobrađeno LGIO 171520Z VRB03KT 9999 FEW015 BKN035 BKN070 14/12 Q1019

VFR

15°C / 12°C

[Više]
Vetar 140º 7kt
Vidljivost >10km
Prognoza -
Oblaci Few Clouds 1500ft
Broken Clouds 3500ft
Broken Clouds 7000ft
Pritisak 1019
Promena -
Neobrađeno LGIO 171450Z 14007KT 9999 FEW015 BKN035 BKN070 15/12 Q1019

VFR

16°C / 11°C

[Više]
Vetar variable 3kt
Vidljivost >10km
Prognoza -
Oblaci Few Clouds 1500ft
Broken Clouds 3500ft
Broken Clouds 7000ft
Pritisak 1018
Promena -
Neobrađeno LGIO 171350Z VRB03KT 9999 FEW015 BKN035 BKN070 16/11 Q1018

TAF za Ioánnina (LGIO)

From till


From till Wind variable 3kt. Visibility 10km or more. Scattered Clouds 1000ft. Broken Clouds 2500ft.
With 30% probability, from till Visibility 193.121m. Fog . Broken Clouds 200ft.
With 40% probability, from till Visibility 5000m. Mist .
Becoming from till Wind variable 3kt. Visibility 10km or more. Scattered Clouds 2500ft. Scattered Clouds 8000ft.

Neobrađeno: TAF LGIO 180200Z 1803/1812 VRB03KT 9999 SCT010 BKN025 PROB40 1803/1808 5000 BR PROB30 1803/1807 0200 FG BKN002 BECMG 1808/1810 SCT025 SCT080

Trenutni satelitski snimci i slike kiše za Ioánnina, Грчка

Marker lokacije postavljen je na Ioánnina. [Više]

Satelitski snimci u realnom vremenu kombinuju vidljivu svetlost tokom dana sa infracrvenim zračenjem tokom noći. Noću slika nije tamna jer infracrveno zračenje može otkriti temperaturne razlike. Nažalost, niski oblaci i magla teško se mogu razlikovati od temperature zemlje tako da mogu biti skoro nevidljivi tokom noći. Meteosat satelitski snimci za Evropu se ažuriraju u realnom vremenu na svakih 5 minuta. Slnimci GOES-16/GOES-17 (Severna i Južna Amerika) and Himawari (Azia) ažuriraju se na svakih 10 minuta.

Padavine su procenjene na osnovu radara i satelita. U noćnim uslovima satelitske procene padavina su manje precizne od dnevnih. Narandžasti preseci obeležavaju mesta gde je munja otkrivena (preko Evropa).

Autorsko pravo 2021 EUMETSAT / meteoblue. Podaci za munje obezbeđeni od nowcast.

Radar i padavine kratka prognoza za Ioánnina

Rominjati
Svjetlo
Umjereno
Teška
Vrlo teško
Zdravo

Marker lokacije postavljen je na Ioánnina. Ova animacija prikazuje radar padavina za poslednji sat, kao i 1h prognozu. Пљусак кише или слаб снег може бити невидљив за радар. Интензитет падавина је кодиран у боји, у распону од светло плаве до наранџасте.